Starlink 32382

operational
NORAD ID: 61258 Int'l Des: 2024-175 Owner: SPXS Country: US Constellation: starlink
LEOCIRCULAR

Über Starlink 32382

Beschreibung wird geladen...

Live-Position

3D-Globus wird geladen...

Nächste Überflüge

Höhenverlauf

Altitude vs Time

uPlot chart will show altitude changes over time

Zweizeiliger Elementsatz

1 61258U 24175R 26035.12463202 -.00002446 00000-0 -70500-4 0 9991
2 61258 53.1614 350.0163 0001356 103.6482 256.4670 15.30190820 76317
Epoch: 4. Feb. 2026 • Age: 18 hours

Aktueller Status

Höhe 494.1 km
Geschwindigkeit 7.62 km/s
Subsatellitenpunkt -51.75°S, 178.58°E
Startdatum 25. Sept. 2024
Alter 1.3 years
Typ internet

Technische Details

Klassifizierung Payload
Masse 730.00 kg
Trockenmasse 700.00 kg
Gesamtmasse 730.00 kg
Länge 0.30 m
Durchmesser 4.10 m
Spannweite 29.00 m
Form Box + pan
Hersteller SPXS
Bus-Typ Starlink V2M
Phasenstatus In Orbit
Besitzer/Staat SPXS/US

Große Konstellationen

Loading constellations...